[[{"header":{"parameterUnit":"m.s-1","parameterCategory":1,"la1":30.2991,"la2":30.254,"lo1":-89.0895,"lo2":-89.0444,"dy":0.0017,"dx":0.0017,"nx":28,"ny":28,"refTime":"2025-01-30T03:00:00:Z","depth":0,"parameterNumber":2,"parameterNumberName":"U-component_of_WINDS"},"data":[0,0,0,0,0,0,0,0,0,0,0,0,0,0,0,0,0,0,0,0,0,0,0,0,0,0,0,0,0,0,0,0,0,0,0,0,0,0,0,0,0,0,0,0,0,0,0,0,0,0,0,0,0,0,0,0,0,0,-3.5601,-3.5601,0,-3.5649,-3.5649,-3.565,-3.5596,-3.5594,-3.5592,-3.559,-3.5639,-3.5642,-3.5645,0,0,0,0,0,0,0,0,0,0,0,0,0,-3.5462,-3.5465,-3.5601,-3.5601,-3.5602,-3.5649,-3.5649,-3.565,-3.5597,-3.5594,-3.5592,-3.5589,-3.5638,-3.5642,-3.5646,0,0,0,0,0,0,0,0,0,0,0,0,0,-3.5518,-3.5466,-3.5601,-3.5581,-3.558,-3.5649,-3.565,-3.565,-3.5597,-3.5594,-3.5591,-3.5588,-3.5637,-3.5642,-3.5646,-3.5737,0,0,-3.5661,-3.5663,0,0,0,0,0,0,0,0,-3.5515,-3.5523,-3.5583,-3.5582,-3.5581,-3.5613,-3.5619,-3.5679,-3.5598,-3.5591,-3.559,-3.5587,-3.5633,-3.5638,-3.5654,-3.5739,-3.5741,-3.5661,-3.5664,-3.5666,-3.5668,0,0,0,0,0,0,0,-3.5511,-3.5521,-3.562,-3.5584,-3.5583,-3.557,-3.5574,-3.563,-3.5628,-3.5591,-3.5587,-3.5594,-3.5632,-3.5649,-3.5654,-3.5742,-3.5661,-3.5666,-3.5668,-3.567,-3.5904,-3.5907,0,0,0,0,0,0,-3.5509,-3.5518,-3.5618,-3.5621,-3.554,-3.5575,-3.558,-3.5606,-3.5628,-3.5628,-3.5596,-3.5591,-3.5643,-3.5649,-3.5656,-3.5763,-3.5666,-3.5671,-3.5674,-3.5901,-3.5905,-3.5908,0,0,0,0,0,0,-3.5507,-3.5519,-3.5616,-3.5569,-3.558,-3.558,-3.5611,-3.5609,-3.5626,-3.5632,-3.5631,-3.5614,-3.564,-3.5649,-3.5717,-3.5763,-3.5673,-3.5677,-3.5897,-3.5902,-3.5906,-3.5977,0,0,0,0,0,0,-3.5503,-3.5518,-3.5553,-3.557,-3.5583,-3.5677,-3.5613,-3.5612,-3.5634,-3.5628,-3.5648,-3.5649,-3.5639,-3.571,-3.5722,-3.5768,-3.5681,-3.5892,-3.5899,-3.5905,-3.5971,-3.5984,-3.5995,0,0,0,0,0,-3.5498,-3.5571,-3.5555,-3.5567,-3.5626,-3.568,-3.5687,-3.5674,-3.5638,-3.5673,-3.5676,-3.5648,-3.5757,-3.5718,-3.573,-3.5779,-3.5889,-3.5897,-3.5904,-3.5965,-3.5981,-3.5995,0,0,0,0,0,0,-3.5559,-3.5573,-3.5555,-3.5635,-3.5657,-3.567,-3.5713,-3.5692,-3.5724,-3.5716,-3.5699,-3.5704,-3.5776,-3.5785,-3.5741,-3.5868,-3.5817,-3.5828,-3.5859,-3.5875,-3.5887,-3.5882,-3.5685,0,0,0,0,0,-3.5582,-3.5625,-3.5634,-3.5704,-3.5716,-3.5713,-3.5736,-3.5725,-3.5746,-3.5755,-3.5763,-3.5785,-3.5824,-3.585,-3.5887,-3.5972,-3.5975,-3.6012,-3.6025,-3.6035,-3.6043,-3.6088,-3.6104,-3.5933,-3.5933,-3.5933,0,0,-3.5629,-3.5642,-3.567,-3.5717,-3.5732,-3.5776,-3.5721,-3.577,-3.5803,-3.5762,-3.5826,-3.5834,-3.5857,-3.5934,-3.5968,-3.5943,-3.6092,-3.6044,-3.6052,-3.6055,-3.6098,-3.6114,-3.6128,-3.5938,-3.5937,-3.5936,0,0,-3.5738,-3.5753,-3.5812,-3.5828,-3.5852,-3.585,-3.5864,-3.5882,-3.5885,-3.5949,-3.5919,-3.5958,-3.6026,-3.6044,-3.6061,-3.6178,-3.6152,-3.619,-3.6254,-3.6298,-3.6312,-3.6323,-3.6363,-3.6378,-3.6199,-3.6199,-3.62,0,-3.5793,-3.5859,-3.5845,-3.5896,-3.5917,-3.5883,-3.5943,-3.596,-3.5994,-3.601,-3.5981,-3.6066,-3.6079,-3.6159,-3.6188,-3.6204,-3.6219,-3.6187,-3.6311,-3.6323,-3.6333,-3.6371,-3.6387,-3.6204,-3.6203,-3.6203,-3.6202,0,-3.5926,-3.5972,-3.6017,-3.6051,-3.6078,-3.6133,-3.6127,-3.6156,-3.6142,-3.6143,-3.6209,-3.6224,-3.6262,-3.6281,-3.6268,-3.636,-3.6343,-3.6314,-3.6262,-3.6354,-3.6389,-3.6404,-3.621,-3.6208,-3.6207,-3.6206,0,0,-3.6072,-3.6099,-3.6115,-3.613,-3.6154,-3.6189,-3.6244,-3.6281,-3.6305,-3.6331,-3.6375,-3.6434,-3.6406,-3.6427,-3.6416,-3.6455,-3.6545,-3.642,-3.6421,-3.6441,-3.6645,-3.6665,-3.6682,-3.6529,-3.6532,-3.6534,-3.6642,0,-3.618,-3.6273,-3.6262,-3.6351,-3.6393,-3.6362,-3.6409,-3.6429,-3.6431,-3.6467,-3.647,-3.6511,-3.6473,-3.6484,-3.6522,-3.6526,-3.6585,-3.6518,-3.6569,-3.6571,-3.6562,-3.6701,-3.6723,-3.6824,-3.6656,-3.6658,-3.666,0,-3.6317,-3.6348,-3.6441,-3.6458,-3.6475,-3.6518,-3.6551,-3.6586,-3.6608,-3.6608,-3.6631,-3.6613,-3.6667,-3.6617,-3.669,-3.6645,-3.6665,-3.6671,-3.6674,-3.6677,-3.6619,-3.6706,-3.6856,-3.6871,-3.6682,-3.668,-3.6678,0,-3.6413,-3.6477,-3.6541,-3.6555,-3.6577,-3.6608,-3.6619,-3.6638,-3.6661,-3.6691,-3.6705,-3.6741,-3.676,-3.6788,-3.6781,-3.6745,-3.6856,-3.6805,-3.6855,-3.6856,-3.6878,-3.6877,-3.7033,-3.6895,-3.6895,-3.6895,-3.6894,0,-3.6533,-3.6591,-3.6584,-3.6623,-3.6687,-3.6674,-3.6738,-3.6744,-3.6762,-3.6801,-3.6777,-3.6815,-3.6804,-3.6841,-3.6836,-3.6897,-3.6906,-3.6906,-3.6904,-3.6907,-3.6907,-3.6919,-3.6911,-3.6899,-3.6898,-3.6897,-3.6896,0,-3.6649,-3.6647,-3.6714,-3.673,-3.6736,-3.6782,-3.6796,-3.6832,-3.6833,-3.6884,-3.6895,-3.6897,-3.6939,-3.6935,-3.6983,-3.6979,-3.7054,-3.7045,-3.7047,-3.7044,-3.7094,-3.7089,-3.7261,-3.7283,-3.7133,-3.7135,-3.7136,0,-3.6725,-3.6769,-3.679,-3.6814,-3.6827,-3.6868,-3.6891,-3.6881,-3.6907,-3.6935,-3.6969,-3.7009,-3.704,-3.711,-3.7115,-3.7151,-3.7141,-3.7199,-3.7146,-3.7148,-3.714,-3.7136,-3.714,-3.7209,-3.7211,-3.7212,-3.7213,0,-3.6859,-3.6856,-3.6891,-3.6926,-3.6955,-3.6982,-3.7006,-3.7028,-3.7021,-3.7051,-3.7094,-3.7118,-3.7167,-3.7207,-3.7242,-3.7253,-3.7231,-3.723,-3.7243,-3.7246,-3.7245,-3.7244,-3.7073,-3.7226,-3.7224,-3.7223,-3.7223,-3.7222,-3.6956,-3.6993,-3.7013,-3.7053,-3.7071,-3.7094,-3.7129,-3.7135,-3.7171,-3.7209,-3.7202,-3.725,-3.7271,-3.7315,-3.733,-3.7367,-3.7346,-3.7366,-3.737,-3.7375,-3.738,-3.7241,-3.7374,-3.7373,-3.7373,-3.7373,-3.7373,0,-3.7087,-3.7099,-3.7136,-3.7171,-3.7202,-3.718,-3.7207,-3.7234,-3.7277,-3.7298,-3.733,-3.7379,-3.7418,-3.7427,-3.7464,-3.7492,-3.7484,-3.7502,-3.7499,-3.7502,-3.7398,-3.7381,-3.7509,-3.7509,-3.7509,-3.7509,-3.7509,-3.7509,-3.7158,-3.7219,-3.7219,-3.7288,-3.73,-3.7347,-3.7363,-3.7385,-3.7402,-3.7458,-3.749,-3.7496,-3.7513,-3.7551,-3.7585,-3.7587,-3.7601,-3.7623,-3.7621,-3.7523,-3.7509,-3.7496,-3.7481,-3.7627,-3.7627,-3.7721,-3.7722,-3.7723]},{"header":{"parameterUnit":"m.s-1","parameterCategory":1,"la1":30.2991,"la2":30.254,"lo1":-89.0895,"lo2":-89.0444,"dy":0.0017,"dx":0.0017,"nx":28,"ny":28,"refTime":"2025-01-30T03:00:00:Z","depth":0,"parameterNumber":3,"parameterNumberName":"V-component_of_WINDS"},"data":[0,0,0,0,0,0,0,0,0,0,0,0,0,0,0,0,0,0,0,0,0,0,0,0,0,0,0,0,0,0,0,0,0,0,0,0,0,0,0,0,0,0,0,0,0,0,0,0,0,0,0,0,0,0,0,0,0,0,1.7062,1.7063,0,1.7125,1.7125,1.7126,1.7141,1.7141,1.7141,1.714,1.7205,1.7207,1.7209,0,0,0,0,0,0,0,0,0,0,0,0,0,1.6959,1.6961,1.7062,1.7063,1.7064,1.7124,1.7125,1.7126,1.7141,1.7141,1.714,1.714,1.7204,1.7207,1.7209,0,0,0,0,0,0,0,0,0,0,0,0,0,1.7011,1.6962,1.7062,1.7079,1.7081,1.7124,1.7125,1.7126,1.7142,1.7141,1.714,1.714,1.7204,1.7207,1.721,1.7241,0,0,1.7219,1.7221,0,0,0,0,0,0,0,0,1.7008,1.7015,1.7075,1.7078,1.708,1.7125,1.7113,1.7165,1.7142,1.7119,1.714,1.714,1.7179,1.7184,1.7197,1.7244,1.7247,1.722,1.7222,1.7223,1.7224,0,0,0,0,0,0,0,1.7005,1.7012,1.7087,1.7076,1.7079,1.7084,1.7091,1.7123,1.7151,1.7121,1.7122,1.7129,1.718,1.7194,1.7199,1.7248,1.722,1.7222,1.7224,1.7226,1.7328,1.7328,0,0,0,0,0,0,1.6998,1.7009,1.7085,1.7089,1.7042,1.7086,1.7094,1.7111,1.7151,1.7157,1.7129,1.7129,1.7189,1.7195,1.7201,1.7243,1.7223,1.7226,1.7228,1.7327,1.7328,1.7329,0,0,0,0,0,0,1.6995,1.7004,1.7082,1.7049,1.706,1.7089,1.7108,1.7112,1.7126,1.7158,1.7163,1.7138,1.7189,1.7197,1.7232,1.7245,1.7227,1.723,1.7326,1.7327,1.7328,1.7325,0,0,0,0,0,0,1.6992,1.7003,1.7015,1.7049,1.7061,1.7111,1.7109,1.7114,1.7132,1.7132,1.7167,1.7173,1.7189,1.7227,1.7235,1.7249,1.7233,1.7325,1.7326,1.7328,1.7324,1.7326,1.7328,0,0,0,0,0,1.6989,1.7011,1.7015,1.7025,1.7076,1.7112,1.7119,1.7137,1.7133,1.7145,1.7166,1.7172,1.7242,1.7231,1.724,1.7255,1.7324,1.7326,1.7328,1.7324,1.7326,1.7328,0,0,0,0,0,0,1.6977,1.7016,1.7021,1.7055,1.708,1.7115,1.7131,1.7138,1.7165,1.7164,1.7186,1.7194,1.7228,1.7245,1.7231,1.7289,1.7283,1.7287,1.7277,1.7279,1.7281,1.7277,1.7235,0,0,0,0,0,1.6979,1.7004,1.7037,1.7064,1.7076,1.7101,1.7117,1.7129,1.7156,1.7167,1.719,1.7216,1.7245,1.7263,1.729,1.7327,1.7336,1.7342,1.7344,1.7345,1.7348,1.7371,1.7375,1.7335,1.7335,1.7335,0,0,1.6982,1.7007,1.7021,1.7062,1.7083,1.711,1.711,1.7138,1.7158,1.7171,1.7206,1.7224,1.7255,1.7292,1.7309,1.7307,1.7362,1.7347,1.7348,1.7351,1.7374,1.7377,1.7381,1.7336,1.7336,1.7336,0,0,1.7003,1.7022,1.7048,1.707,1.7101,1.7118,1.7124,1.7158,1.7171,1.7206,1.7217,1.7242,1.729,1.7312,1.733,1.7361,1.7368,1.7369,1.7379,1.7401,1.7404,1.7407,1.742,1.7425,1.7372,1.7372,1.7372,0,1.7003,1.7043,1.7061,1.7089,1.7108,1.7121,1.7148,1.7168,1.7207,1.722,1.7217,1.7279,1.73,1.7344,1.7351,1.7364,1.7374,1.7365,1.7402,1.7405,1.7408,1.7421,1.7426,1.7372,1.7372,1.7372,1.7372,0,1.7043,1.7071,1.7088,1.7126,1.7147,1.7174,1.7198,1.7217,1.7227,1.7244,1.7282,1.7308,1.7343,1.7354,1.7363,1.7399,1.7397,1.7398,1.7392,1.7412,1.7425,1.7429,1.7372,1.7372,1.7372,1.7372,0,0,1.7057,1.7106,1.7112,1.7131,1.7168,1.719,1.7219,1.7253,1.727,1.7296,1.7322,1.7363,1.7365,1.7385,1.7398,1.7417,1.7443,1.7416,1.7417,1.7422,1.7487,1.7487,1.7492,1.7447,1.7448,1.7449,1.7485,0,1.7083,1.7135,1.7153,1.7197,1.7224,1.7238,1.7263,1.7289,1.7307,1.7334,1.7353,1.7383,1.7381,1.7394,1.7414,1.7435,1.7456,1.7433,1.7474,1.7475,1.7467,1.7499,1.7499,1.7531,1.7489,1.749,1.7491,0,1.712,1.7149,1.7195,1.7231,1.7243,1.7265,1.7299,1.7324,1.7354,1.7366,1.7389,1.7401,1.7434,1.7426,1.7472,1.7456,1.7473,1.7487,1.7489,1.7494,1.7485,1.7507,1.7542,1.7547,1.7498,1.7498,1.7497,0,1.7129,1.7178,1.7213,1.7228,1.727,1.7286,1.7304,1.7334,1.7354,1.7384,1.7398,1.743,1.7449,1.7474,1.7496,1.7487,1.7541,1.7534,1.7553,1.7553,1.7565,1.7564,1.7604,1.7573,1.7573,1.7573,1.7573,0,1.7157,1.7185,1.7218,1.7239,1.7272,1.7293,1.7326,1.7345,1.7372,1.7398,1.7412,1.7437,1.7462,1.7491,1.7507,1.7544,1.7552,1.7564,1.7568,1.7564,1.7562,1.7577,1.7576,1.7574,1.7574,1.7573,1.7573,0,1.7172,1.7195,1.7234,1.7271,1.7281,1.7304,1.7336,1.7358,1.7377,1.7411,1.742,1.745,1.7484,1.7508,1.7551,1.7563,1.7604,1.7607,1.7594,1.7596,1.7615,1.7614,1.7667,1.7677,1.7637,1.7637,1.7638,0,1.7189,1.7211,1.7251,1.727,1.7289,1.7319,1.734,1.7362,1.7383,1.7421,1.7439,1.7475,1.7505,1.756,1.7586,1.762,1.7625,1.7642,1.7631,1.7626,1.7629,1.7628,1.7631,1.7644,1.7644,1.7645,1.7645,0,1.7218,1.7229,1.7258,1.7292,1.7317,1.7345,1.7373,1.7388,1.7415,1.7439,1.7475,1.7498,1.7544,1.758,1.7617,1.7637,1.7647,1.7648,1.7655,1.7651,1.7644,1.7651,1.7601,1.7647,1.7647,1.7647,1.7647,1.7646,1.7236,1.7257,1.729,1.7323,1.7347,1.7373,1.7397,1.7419,1.7449,1.7489,1.75,1.7538,1.757,1.7622,1.7642,1.7673,1.7672,1.7681,1.7683,1.7686,1.7687,1.7637,1.768,1.768,1.768,1.768,1.768,0,1.7267,1.7289,1.7319,1.7359,1.7386,1.7392,1.7424,1.7446,1.7479,1.7509,1.7538,1.7581,1.7617,1.7646,1.7683,1.7702,1.7708,1.7712,1.7711,1.7717,1.7685,1.7677,1.7707,1.7707,1.7707,1.7707,1.7707,1.7707,1.7287,1.7324,1.7339,1.739,1.7412,1.7449,1.7468,1.7493,1.7517,1.7564,1.7594,1.7613,1.7643,1.7683,1.7716,1.7724,1.7738,1.7742,1.7751,1.7721,1.7718,1.7715,1.7708,1.7744,1.7744,1.778,1.778,1.778]}]]